TimeEDT,TemperatureF,Dew PointF,Humidity,Sea Level PressureIn,VisibilityMPH,Wind Direction,Wind SpeedMPH,Gust SpeedMPH,PrecipitationIn,Events,Conditions,WindDirDegrees,DateUTC
12:53 AM,66.0,54.0,65,30.15,10.0,ESE,4.6,-,N/A,,Clear,120,2013-05-02 04:53:00
1:53 AM,66.9,54.0,63,30.14,10.0,SE,5.8,-,N/A,,Clear,130,2013-05-02 05:53:00
2:53 AM,64.0,54.0,70,30.13,10.0,SE,3.5,-,N/A,,Clear,130,2013-05-02 06:53:00
3:53 AM,62.1,53.1,72,30.13,10.0,SE,4.6,-,N/A,,Clear,140,2013-05-02 07:53:00
4:53 AM,63.0,53.1,70,30.14,10.0,SE,4.6,-,N/A,,Clear,140,2013-05-02 08:53:00
5:53 AM,63.0,52.0,67,30.14,10.0,SSE,4.6,-,N/A,,Clear,150,2013-05-02 09:53:00
6:53 AM,63.0,51.1,65,30.15,10.0,SSE,5.8,-,N/A,,Clear,160,2013-05-02 10:53:00
7:53 AM,66.0,51.1,59,30.16,10.0,SSE,9.2,-,N/A,,Clear,160,2013-05-02 11:53:00
8:53 AM,68.0,51.1,55,30.18,10.0,SSE,10.4,-,N/A,,Clear,160,2013-05-02 12:53:00
9:53 AM,70.0,51.1,51,30.18,10.0,South,10.4,-,N/A,,Clear,170,2013-05-02 13:53:00
10:53 AM,72.0,52.0,49,30.18,10.0,SSE,6.9,-,N/A,,Clear,160,2013-05-02 14:53:00
11:53 AM,73.0,52.0,48,30.17,10.0,South,10.4,-,N/A,,Clear,180,2013-05-02 15:53:00
12:53 PM,73.9,53.1,48,30.16,10.0,Variable,6.9,-,N/A,,Clear,0,2013-05-02 16:53:00
1:53 PM,75.0,53.1,46,30.14,10.0,ESE,11.5,-,N/A,,Clear,110,2013-05-02 17:53:00
2:53 PM,75.0,53.1,46,30.14,10.0,ESE,12.7,-,N/A,,Clear,120,2013-05-02 18:53:00
3:53 PM,75.9,53.1,45,30.12,10.0,SSE,12.7,21.9,N/A,,Partly Cloudy,150,2013-05-02 19:53:00
4:53 PM,75.0,53.1,46,30.10,10.0,ESE,13.8,-,N/A,,Clear,110,2013-05-02 20:53:00
5:53 PM,73.9,51.1,45,30.09,10.0,SE,9.2,-,N/A,,Clear,140,2013-05-02 21:53:00
6:53 PM,73.0,51.1,46,30.08,10.0,SSE,10.4,-,N/A,,Clear,150,2013-05-02 22:53:00
7:53 PM,73.0,51.1,46,30.07,10.0,SSE,8.1,-,N/A,,Clear,160,2013-05-02 23:53:00
8:53 PM,71.1,51.1,49,30.07,10.0,SE,3.5,-,N/A,,Clear,140,2013-05-03 00:53:00
9:53 PM,69.1,53.1,57,30.08,10.0,SE,4.6,-,N/A,,Clear,140,2013-05-03 01:53:00
10:53 PM,68.0,53.1,59,30.07,10.0,SE,4.6,-,N/A,,Scattered Clouds,140,2013-05-03 02:53:00
11:53 PM,66.0,53.1,63,30.07,10.0,SE,5.8,-,N/A,,Clear,140,2013-05-03 03:53:00